Waarnemingen

Advertentie
Mijn weer
Gotska sandoen, Zweden (2589): temperatuur & dauwpunt: 18.10.2018 01:00:00 - 24.10.2018 01:00:00 (CEST)Gotska sandoen, Zweden (2589): windsnelheid & windstoten: 18.10.2018 01:00:00 - 24.10.2018 01:00:00 (CEST)Gotska sandoen, Zweden (2589): windrichting: 18.10.2018 01:00:00 - 24.10.2018 01:00:00 (CEST)Gotska sandoen, Zweden (2589): luchtdruk: 18.10.2018 01:00:00 - 24.10.2018 01:00:00 (CEST)Gotska sandoen, Zweden (2589): zicht: 18.10.2018 01:00:00 - 24.10.2018 01:00:00 (CEST)Gotska sandoen, Zweden (2589): neerslag: 18.10.2018 01:00:00 - 24.10.2018 01:00:00 (CEST)
Datum & Tijd tt [°C] td [°C] ff [km/u] ff [kn] fx [km/u] fx [kn] dd ppp [hPa] vv [km] rr [mm]
24.10.2018 01:00:00 5,9 3,7 39 21 67 36 N 989,8 35 0,0
24.10.2018 00:00:00 5,6 3,4 41 22 65 35 N 989,2 39 0,0
23.10.2018 23:00:00 5,8 4,0 38 20 65 35 NNW 988,7 36 0,0
23.10.2018 22:00:00 6,1 4,1 35 19 67 36 N 988,5 35 0,0
23.10.2018 21:00:00 5,6 3,6 39 21 69 37 N 988,2 31 0,0
23.10.2018 20:00:00 5,9 3,7 36 19 69 37 N 987,9 34 0,0
23.10.2018 19:00:00 6,3 4,6 36 20 64 35 N 987,6 43 0,0
23.10.2018 18:00:00 6,4 5,2 34 19 59 32 NNW 987,0 45 0,0
23.10.2018 17:00:00 6,7 5,6 33 18 59 32 NNW 986,3 38 0,0
23.10.2018 16:00:00 6,7 6,0 31 17 52 28 NNW 985,9 41 0,0
23.10.2018 15:00:00 7,5 7,1 31 17 52 28 NNW 985,7 14 0,3
23.10.2018 14:00:00 7,8 7,4 27 14 46 25 NW 985,5 16 0,1
23.10.2018 13:00:00 8,1 7,5 23 13 46 25 NW 985,4 19 0,0
23.10.2018 12:00:00 8,1 7,5 24 13 48 26 NW 985,5 42 0,0
23.10.2018 11:00:00 8,2 7,8 23 12 52 28 WNW 985,7 22 0,5
23.10.2018 10:00:00 8,2 7,9 31 17 61 33 W 986,3 7 1,8
23.10.2018 09:00:00 8,0 7,6 32 17 66 36 WZW 988,0 5 2,2
23.10.2018 08:00:00 7,5 6,9 38 20 72 39 ZW 990,2 6 2,0
23.10.2018 07:00:00 7,2 6,5 41 22 74 40 ZW 992,8 7 1,6
23.10.2018 06:00:00 7,1 6,4 39 21 74 40 ZW 995,8 4,1 2,3
23.10.2018 05:00:00 - - - - 63 34 - - - -
23.10.2018 04:00:00 8,6 5,2 36 19 60 32 WZW 1001,3 18 0,0
23.10.2018 03:00:00 8,3 4,9 32 18 52 28 WZW 1004,1 17 0,0
23.10.2018 02:00:00 8,2 4,4 29 16 48 26 W 1006,1 23 0,0
23.10.2018 01:00:00 8,2 3,8 27 15 49 26 W 1008,2 27 0,0
23.10.2018 00:00:00 8,1 3,9 27 14 50 27 W 1009,7 30 0,0
22.10.2018 23:00:00 8,4 3,4 28 15 51 27 W 1010,8 38 0,0
22.10.2018 22:00:00 8,4 3,4 29 15 51 27 W 1012,0 38 0,0
22.10.2018 21:00:00 8,5 3,3 27 15 49 26 W 1012,6 49 0,0
22.10.2018 20:00:00 8,8 3,2 24 13 48 26 WNW 1012,9 50 0,0
22.10.2018 19:00:00 9,1 3,5 26 14 50 27 WNW 1013,0 47 0,0
22.10.2018 18:00:00 9,1 3,7 28 15 56 30 W 1013,3 44 0,0
22.10.2018 17:00:00 9,3 3,3 29 16 56 30 WNW 1013,0 49 0,0
22.10.2018 16:00:00 9,8 4,0 26 14 45 24 W 1012,6 50 0,0
22.10.2018 15:00:00 10,3 4,4 23 13 45 24 W 1012,6 45 0,0
22.10.2018 14:00:00 10,6 5,6 26 14 51 28 W 1012,6 44 0,0
22.10.2018 13:00:00 10,6 5,8 29 15 51 28 W 1012,7 37 0,0
22.10.2018 12:00:00 10,8 6,5 27 15 49 26 W 1012,8 26 0,0
22.10.2018 11:00:00 10,7 7,2 24 13 45 24 W 1012,8 33 0,0
22.10.2018 10:00:00 10,0 7,2 25 14 47 25 WNW 1012,8 37 0,0
22.10.2018 09:00:00 9,8 7,7 25 14 47 25 W 1012,4 38 0,0
22.10.2018 08:00:00 10,2 8,5 19 11 45 24 WNW 1012,1 31 0,0
22.10.2018 07:00:00 10,6 8,9 26 14 53 28 W 1011,5 33 0,0
22.10.2018 06:00:00 11,1 9,8 29 16 62 33 W 1011,2 21 0,0
22.10.2018 05:00:00 11,3 10,2 32 18 62 33 WZW 1011,1 10 0,0
22.10.2018 04:00:00 11,5 10,2 39 21 63 34 WZW 1011,0 13 0,0
22.10.2018 03:00:00 11,4 10,0 36 19 63 34 WZW 1011,6 16 0,0
22.10.2018 02:00:00 11,3 9,9 37 20 66 35 WZW 1012,0 18 0,0
22.10.2018 01:00:00 11,2 9,8 37 20 66 35 WZW 1012,8 17 0,0
22.10.2018 00:00:00 11,0 9,8 38 20 62 33 WZW 1013,6 13 0,0
21.10.2018 23:00:00 11,0 9,3 35 19 62 33 ZW 1014,3 19 0,0
21.10.2018 22:00:00 11,1 9,2 36 19 55 30 WZW 1015,1 20 0,0
21.10.2018 21:00:00 11,2 8,8 30 16 53 28 WZW 1016,2 27 0,0
21.10.2018 20:00:00 11,2 8,6 31 17 51 28 ZW 1017,1 25 0,0
21.10.2018 19:00:00 11,0 8,4 29 16 51 28 ZW 1017,6 24 0,0
21.10.2018 18:00:00 10,8 8,2 29 16 52 28 ZW 1018,2 24 0,0
21.10.2018 17:00:00 10,6 8,0 28 15 52 28 ZW 1018,8 24 0,0
21.10.2018 16:00:00 10,2 8,0 28 15 51 28 ZW 1019,3 25 0,2
21.10.2018 15:00:00 10,6 7,8 29 15 49 27 WZW 1020,0 26 0,0
21.10.2018 14:00:00 10,9 7,9 26 14 46 25 WZW 1020,5 36 0,0
21.10.2018 13:00:00 10,6 7,8 26 14 46 25 ZW 1020,9 26 0,0
21.10.2018 12:00:00 11,4 8,1 23 12 42 23 WZW 1021,5 48 0,0
21.10.2018 11:00:00 10,7 7,6 24 13 42 23 ZW 1021,9 38 0,0
21.10.2018 10:00:00 10,5 7,2 23 12 40 21 ZW 1022,1 50 0,0
21.10.2018 09:00:00 9,9 7,5 21 11 36 19 WZW 1022,5 47 0,0
21.10.2018 08:00:00 8,9 7,2 19 11 32 18 WZW 1022,5 50 0,0
21.10.2018 07:00:00 8,5 7,3 16 9 27 14 WZW 1022,8 33 0,0
21.10.2018 06:00:00 8,6 7,5 16 9 24 13 WZW 1022,7 47 0,0
21.10.2018 05:00:00 7,7 7,1 13 7 22 12 WZW 1023,2 48 0,0
21.10.2018 04:00:00 6,4 6,3 12 6 18 10 WZW 1023,4 19 0,0
21.10.2018 03:00:00 6,2 6,1 11 6 18 10 W 1023,5 14 0,0
21.10.2018 02:00:00 5,1 5,0 9 5 13 7 W 1023,7 8 0,0
21.10.2018 01:00:00 5,7 5,6 8 5 13 7 W 1023,4 9 0,0
21.10.2018 00:00:00 5,2 4,9 9 5 16 9 W 1023,6 10 0,0
20.10.2018 23:00:00 5,6 5,5 10 6 16 9 W 1023,6 15 0,0
20.10.2018 22:00:00 4,3 3,9 7 4 9 5 W 1023,6 36 0,0
20.10.2018 21:00:00 4,5 3,9 5 3 9 5 NW 1023,2 50 0,0
20.10.2018 20:00:00 4,8 4,1 7 4 8 5 WNW 1023,1 50 0,0
20.10.2018 19:00:00 5,0 4,0 4 2 - - W 1022,9 50 0,0
20.10.2018 18:00:00 6,3 4,5 - - 8 4 - 1022,4 50 0,0
20.10.2018 17:00:00 8,8 5,2 0 0 11 6 N 1022,0 50 0,0
20.10.2018 16:00:00 9,5 5,1 4 2 11 6 ONO 1021,7 50 0,0
20.10.2018 15:00:00 11,2 5,7 6 3 13 7 NO 1021,9 46 0,0
20.10.2018 14:00:00 11,4 7,5 8 4 13 7 NO 1021,7 50 0,0
20.10.2018 13:00:00 10,7 7,6 4 2 10 5 N 1021,4 50 0,0
20.10.2018 12:00:00 10,6 7,3 4 2 13 7 W 1021,4 50 0,0
20.10.2018 11:00:00 10,5 7,2 4 2 13 7 W 1021,3 50 0,0
20.10.2018 10:00:00 9,7 8,5 7 4 10 5 WZW 1020,9 50 0,0
20.10.2018 09:00:00 8,0 7,1 7 4 9 5 WZW 1020,5 50 0,0
20.10.2018 08:00:00 6,9 6,3 6 3 11 6 Z 1020,4 50 0,0
20.10.2018 07:00:00 7,2 6,6 6 4 11 6 WZW 1020,4 50 0,0
20.10.2018 06:00:00 7,5 6,8 8 4 14 7 WZW 1020,3 50 0,0
20.10.2018 05:00:00 8,0 6,9 7 4 15 8 WZW 1020,3 50 0,0
20.10.2018 04:00:00 8,4 7,3 9 5 25 13 W 1020,8 50 0,0
20.10.2018 03:00:00 8,9 7,2 12 6 25 13 W 1021,1 50 0,0
20.10.2018 02:00:00 8,7 7,2 14 8 22 12 W 1021,3 50 0,0
20.10.2018 01:00:00 8,3 7,2 10 6 21 11 WZW 1021,6 50 0,0
20.10.2018 00:00:00 7,9 7,0 10 5 21 11 W 1021,6 50 0,0
19.10.2018 23:00:00 7,3 6,7 10 5 20 11 W 1021,8 50 0,0
19.10.2018 22:00:00 6,6 5,9 10 6 20 11 W 1021,9 50 0,0
19.10.2018 21:00:00 6,2 5,2 9 5 18 10 W 1022,4 50 0,0
19.10.2018 20:00:00 6,2 5,3 9 5 18 10 W 1022,2 50 0,0
19.10.2018 19:00:00 6,4 5,4 10 5 17 9 W 1022,2 50 0,0
19.10.2018 18:00:00 6,3 4,9 10 5 16 9 W 1022,4 50 0,0
19.10.2018 17:00:00 7,8 5,9 8 4 16 8 WZW 1022,2 50 0,0
19.10.2018 16:00:00 9,1 6,0 9 5 18 10 W 1022,6 50 0,0
19.10.2018 15:00:00 9,7 7,0 9 5 18 10 W 1022,8 50 0,0
19.10.2018 14:00:00 10,2 6,7 11 6 18 10 W 1023,3 50 0,0
19.10.2018 13:00:00 10,4 6,9 7 4 15 8 W 1023,3 50 0,0
19.10.2018 12:00:00 10,0 7,6 7 4 16 8 W 1023,2 50 0,0
19.10.2018 11:00:00 10,3 8,9 6 3 18 10 WNW 1023,3 35 0,0
19.10.2018 10:00:00 8,9 8,8 9 5 18 10 W 1023,2 50 0,0
19.10.2018 09:00:00 6,9 6,8 10 5 13 7 WZW 1022,9 3,3 0,0
19.10.2018 08:00:00 6,6 6,5 9 5 13 7 W 1022,5 5 0,0
19.10.2018 07:00:00 4,2 4,1 8 4 11 6 ZW 1022,3 11 0,0
19.10.2018 06:00:00 4,5 4,4 5 3 5 3 WZW 1022,1 13 0,0
19.10.2018 05:00:00 4,3 4,2 0 0 11 6 N 1021,9 15 0,0
19.10.2018 04:00:00 5,5 5,4 4 2 13 7 NO 1021,9 14 0,0
19.10.2018 03:00:00 5,8 5,7 7 4 16 8 NNW 1021,8 13 0,0
19.10.2018 02:00:00 6,7 6,6 9 5 16 8 NNW 1021,9 23 0,0
19.10.2018 01:00:00 5,9 5,6 8 4 13 7 N 1021,6 32 0,0
19.10.2018 00:00:00 6,5 6,2 8 4 16 8 NNW 1021,3 31 0,0
18.10.2018 23:00:00 7,5 7,1 8 5 16 8 N 1020,9 49 0,0
18.10.2018 22:00:00 7,7 7,1 9 5 24 13 N 1020,5 50 0,0
18.10.2018 21:00:00 8,2 7,4 8 4 24 13 NNO 1019,9 45 0,0
18.10.2018 20:00:00 8,5 7,6 11 6 24 13 NNW 1019,3 50 0,0
18.10.2018 19:00:00 8,8 7,7 13 7 26 14 NW 1018,7 50 0,0
18.10.2018 18:00:00 9,2 7,5 14 8 27 15 NW 1018,1 46 0,0
18.10.2018 17:00:00 10,0 8,3 13 7 29 16 WNW 1017,3 37 0,0
18.10.2018 16:00:00 11,1 9,5 16 9 29 16 WNW 1016,9 27 0,0
18.10.2018 15:00:00 11,5 10,4 12 7 29 16 W 1016,6 11 0,0
18.10.2018 14:00:00 11,4 10,6 14 8 29 16 WNW 1016,3 7 0,0
18.10.2018 13:00:00 11,4 10,9 11 6 24 13 W 1016,4 2,1 0,0
18.10.2018 12:00:00 11,8 11,3 11 6 25 13 WNW 1016,1 1,5 0,2
18.10.2018 11:00:00 11,7 11,2 13 7 25 13 W 1016,2 1,7 0,2
18.10.2018 10:00:00 11,8 11,0 11 6 19 10 W 1016,0 4,1 0,0
18.10.2018 09:00:00 11,8 11,2 10 5 19 11 WZW 1015,9 3,7 0,0
18.10.2018 08:00:00 11,2 10,9 12 7 22 12 WZW 1015,8 1,8 0,0
18.10.2018 07:00:00 10,9 10,6 14 7 23 12 WZW 1015,8 1,4 0,0
18.10.2018 06:00:00 11,1 10,6 14 8 25 14 WZW 1016,1 2,0 0,0
18.10.2018 05:00:00 11,1 10,5 16 8 25 14 ZW 1016,4 3,2 0,0
18.10.2018 04:00:00 11,4 10,1 14 8 27 15 ZW 1016,8 6 0,0
18.10.2018 03:00:00 11,6 10,2 16 9 27 15 ZZW 1017,1 8 0,0
18.10.2018 02:00:00 11,6 9,8 18 10 29 15 ZW 1017,5 9 0,0
18.10.2018 01:00:00 11,6 9,3 18 10 31 17 ZZW 1018,0 10 0,0

tt = temperatuur
td = dauwpunt
ff = windsnelheid
fx = windstoten
dd = windrichting
ppp = luchtdruk
vv = zicht
rr = neerslag

Weerstations in de omgeving